ISS - Orbit

View from above orbital plane
View from above orbital plane
View from above satellite
View from above satellite

Ground track
Ground track

The orbit data is extracted from the following two-line orbital elements,

1 25544U 98067A   13141.30650442  .00011732  00000-0  21012-3 0  8503
2 25544 051.6488 241.6221 0009665 339.2323 062.4256 15.50385334830534
Epoch (UTC): 21 May 2013 07:21:21
Eccentricity: 0.0009665
inclination: 51.6488°
perigee height: 409 km
apogee height: 422 km
right ascension of ascending node: 241.6221°
argument of perigee: 339.2323°
revolutions per day: 15.50385334
mean anomaly at epoch: 62.4256°
orbit number at epoch: 83053

The dashed part of the orbit path shows where the satellite is in the earth's shadow,  

Developed and maintained by Chris Peat, Heavens-Above GmbH. Please read the updated FAQ before sending e-mail. Imprint. DLR